Weather History for Mount Shasta, CA

Change the Weather History Date:

Friday, February 7, 2014

  Actual Average Record
Temperature  
Mean Temperature 37 °F 37 °F  
Max Temperature 39 °F 47 °F 65 °F (1970)
Min Temperature 34 °F 27 °F -1 °F (1989)
Degree Days  
Heating Degree Days 28 28  
Month to date heating degree days 220 196  
Since 1 July heating degree days 3162 3422  
Cooling Degree Days 0 0  
Month to date cooling degree days 0 0  
Year to date cooling degree days 0 0  
Moisture  
Dew Point 33 °F    
Average Humidity 88    
Maximum Humidity 92    
Minimum Humidity 82    
Precipitation  
Precipitation 0.61 in 0.24 in 2.36 in (1978)
Month to date precipitation 0.65 1.70  
Year to date precipitation 0.86 8.76  
Sea Level Pressure  
Sea Level Pressure 29.86 in    
Wind  
Wind Speed 3 mph (ESE)    
Max Wind Speed 9 mph    
Max Gust Speed 19 mph    
Visibility 7 miles    
Events Rain    
T = Trace of Precipitation, MM = Missing Value Source: NWS Daily Summary

Daily Weather History Graph

Daily Weather History Graph

Search for Another Location

Airport:

Trip Planner

Search our weather history database for the weather conditions in past years. The results will help you decide how hot, cold, wet, or windy it might be!

Date:

Astronomy

Feb. 07, 2014 Rise Set
Actual Time 7:13 AM PST 5:33 PM PST
Civil Twilight 6:45 AM PST 6:02 PM PST
Nautical Twilight 6:12 AM PST 6:34 PM PST
Astronomical Twilight 5:40 AM PST 7:07 PM PST
Moon 11:47 AM PST (2/7) 1:35 AM PST (2/7)
Length of Visible Light 11h 17m
Length of Day
10h 19m
First Quarter, 60% of the Moon is Illuminated
Feb 7
First Quarter
Feb 14
Full
Feb 22
Last Quarter
Mar 1
New
Mar 8
First Quarter

Hourly Weather History & Observations

Time (PST) Temp. Windchill Dew Point Humidity Pressure Visibility Wind Dir Wind Speed Gust Speed Precip Events Conditions
12:56 AM 35.1 °F 32.2 °F 30.9 °F 85% 29.91 in 10.0 mi Variable 3.5 mph - 0.00 in   Overcast
1:33 AM 35.1 °F 32.2 °F 32.0 °F 89% 29.82 in 10.0 mi Variable 3.5 mph - N/A   Overcast
1:56 AM 35.1 °F - 32.0 °F 89% 29.92 in 10.0 mi Calm Calm - N/A   Overcast
2:56 AM 35.1 °F - 32.0 °F 89% 29.93 in 10.0 mi Calm Calm - N/A   Mostly Cloudy
3:56 AM 35.1 °F - 32.0 °F 89% 29.93 in 10.0 mi Calm Calm - 0.00 in   Overcast
4:14 AM 35.1 °F - 32.0 °F 89% 29.84 in 10.0 mi Calm Calm - N/A   Mostly Cloudy
4:56 AM 35.1 °F - 33.1 °F 92% 29.94 in 10.0 mi Calm Calm - N/A   Overcast
5:56 AM 36.0 °F - 32.0 °F 86% 29.92 in 10.0 mi Calm Calm - N/A   Overcast
6:56 AM 35.1 °F - 32.0 °F 89% 29.92 in 10.0 mi Calm Calm - 0.00 in   Overcast
7:56 AM 35.1 °F 32.2 °F 32.0 °F 89% 29.93 in 10.0 mi East 3.5 mph - 0.01 in   Overcast
8:03 AM 35.1 °F 32.2 °F 32.0 °F 89% 29.84 in 10.0 mi Variable 3.5 mph - N/A   Overcast
8:56 AM 36.0 °F 32.1 °F 33.1 °F 89% 29.94 in 10.0 mi Variable 4.6 mph - N/A   Overcast
9:56 AM 37.0 °F 32.4 °F 33.1 °F 86% 29.94 in 8.0 mi ESE 5.8 mph - 0.00 in   Overcast
10:26 AM 37.0 °F 32.4 °F 33.1 °F 86% 29.84 in 6.0 mi Variable 5.8 mph - 0.01 in   Overcast
10:56 AM 37.0 °F 33.3 °F 34.0 °F 89% 29.92 in 6.0 mi Variable 4.6 mph - 0.02 in   Overcast
11:56 AM 37.0 °F 32.4 °F 33.1 °F 86% 29.92 in 7.0 mi ESE 5.8 mph - 0.03 in   Overcast
12:56 PM 37.0 °F 32.4 °F 34.0 °F 89% 29.88 in 6.0 mi ESE 5.8 mph - 0.03 in Rain Light Rain
1:46 PM 36.0 °F 31.1 °F 33.1 °F 89% 29.76 in 2.5 mi ESE 5.8 mph - 0.05 in Rain Light Rain
1:56 PM 37.0 °F 34.5 °F 33.1 °F 86% 29.85 in 3.0 mi Variable 3.5 mph - 0.05 in Rain Light Rain
2:04 PM 36.0 °F 33.3 °F 33.1 °F 89% 29.77 in 2.5 mi ESE 3.5 mph - 0.02 in Rain Light Rain
2:13 PM 36.0 °F 32.1 °F 33.1 °F 89% 29.76 in 3.0 mi Variable 4.6 mph - 0.03 in Rain Light Rain
2:20 PM 36.0 °F 31.1 °F 33.1 °F 89% 29.78 in 2.5 mi ESE 5.8 mph - 0.04 in Rain Rain
2:32 PM 36.0 °F 33.3 °F 33.1 °F 89% 29.76 in 3.0 mi ESE 3.5 mph - 0.06 in Rain Light Rain
2:56 PM 37.0 °F 34.5 °F 34.0 °F 89% 29.84 in 3.0 mi Variable 3.5 mph - 0.09 in Rain Light Rain
3:56 PM 37.0 °F 33.3 °F 34.0 °F 89% 29.85 in 4.0 mi ESE 4.6 mph - 0.06 in Rain Light Rain
4:46 PM 37.0 °F 33.3 °F 34.0 °F 89% 29.76 in 2.5 mi SE 4.6 mph - 0.07 in Rain Rain
4:53 PM 37.4 °F 32.8 °F 33.8 °F 87% 29.76 in 4.0 mi Variable 5.8 mph - 0.08 in Rain Light Rain
4:56 PM 37.0 °F 33.3 °F 34.0 °F 89% 29.84 in 5.0 mi ESE 4.6 mph - 0.08 in Rain Light Rain
5:56 PM 37.9 °F 34.4 °F 34.0 °F 86% 29.84 in 7.0 mi Variable 4.6 mph - 0.06 in Rain Light Rain
6:56 PM 37.0 °F 32.4 °F 34.0 °F 89% 29.86 in 10.0 mi Variable 5.8 mph - 0.04 in   Overcast
7:19 PM 37.0 °F 32.4 °F 34.0 °F 89% 29.77 in 10.0 mi SE 5.8 mph - 0.01 in   Overcast
7:56 PM 37.9 °F 35.5 °F 35.1 °F 89% 29.86 in 10.0 mi ESE 3.5 mph - 0.02 in Rain Light Rain
8:10 PM 37.9 °F 33.5 °F 34.0 °F 86% 29.78 in 8.0 mi ESE 5.8 mph - 0.00 in Rain Light Rain
8:56 PM 39.0 °F 35.7 °F 35.1 °F 86% 29.88 in 8.0 mi ESE 4.6 mph - 0.02 in Rain Light Rain
9:56 PM 39.0 °F 35.7 °F 36.0 °F 89% 29.91 in 6.0 mi SE 4.6 mph - 0.04 in Rain Light Rain
10:56 PM 39.0 °F 35.7 °F 36.0 °F 89% 29.93 in 10.0 mi ESE 4.6 mph - 0.03 in Rain Light Rain
11:56 PM 39.0 °F 34.8 °F 36.0 °F 89% 29.96 in 7.0 mi ESE 5.8 mph - 0.02 in Rain Light Rain